Timestamp, Local Timestamp, ID, PM25, PM10, Co2, Temperature, Relative Humidity, Monitor ID, O3
2022-03-30T23:18:02Z,03/30/22 19:18,7868886,3.598,0.008,418,13.3,54.5,91,0.0
2022-03-30T23:19:02Z,03/30/22 19:19,7868896,3.809,0.034,404,13.2,55.7,91,0.0
2022-03-30T23:20:02Z,03/30/22 19:20,7868906,4.152,0.027000000000000003,407,13.1,56.8,91,0.0
2022-03-30T23:21:02Z,03/30/22 19:21,7868916,3.846,0.006,404,13.0,57.5,91,0.0
2022-03-30T23:22:01Z,03/30/22 19:22,7868926,4.113,0.006,415,13.0,58.2,91,0.0
2022-03-30T23:23:02Z,03/30/22 19:23,7868936,4.021,0.008,408,12.9,58.8,91,5.0
2022-03-30T23:24:02Z,03/30/22 19:24,7868946,4.08,0.045,408,12.9,59.4,91,10.0
2022-03-30T23:25:02Z,03/30/22 19:25,7868956,4.122,0.036,401,12.8,59.8,91,10.0
2022-03-30T23:26:02Z,03/30/22 19:26,7868966,3.7520000000000002,0.01,398,12.8,60.0,91,10.0
2022-03-30T23:27:02Z,03/30/22 19:27,7868976,3.8049999999999997,0.014000000000000002,390,12.7,60.6,91,13.0
2022-03-30T23:28:02Z,03/30/22 19:28,7868986,3.8909999999999996,0.033,405,12.7,60.9,91,14.0
2022-03-30T23:29:02Z,03/30/22 19:29,7868996,3.851,0.034,403,12.7,61.3,91,14.0
2022-03-30T23:30:02Z,03/30/22 19:30,7869006,3.825,0.018,403,12.7,61.5,91,13.0
2022-03-30T23:31:02Z,03/30/22 19:31,7869016,3.979,0.038,409,12.7,61.9,91,13.0
2022-03-30T23:32:02Z,03/30/22 19:32,7869026,3.91,0.023,403,12.7,62.2,91,14.0
2022-03-30T23:33:02Z,03/30/22 19:33,7869036,3.808,0.014000000000000002,408,12.7,62.4,91,13.0
2022-03-30T23:34:02Z,03/30/22 19:34,7869046,3.688,0.032,406,12.7,62.7,91,15.0
2022-03-30T23:35:02Z,03/30/22 19:35,7869056,3.9219999999999997,0.032,405,12.7,63.0,91,16.0
2022-03-30T23:36:02Z,03/30/22 19:36,7869066,3.774,0.03,399,12.7,63.1,91,16.0
2022-03-30T23:37:02Z,03/30/22 19:37,7869076,3.7979999999999996,0.03,393,12.6,63.5,91,16.0
2022-03-30T23:38:02Z,03/30/22 19:38,7869086,3.979,0.002,399,12.6,63.5,91,18.0
2022-03-30T23:39:02Z,03/30/22 19:39,7869096,4.179,0.039,396,12.6,63.7,91,17.0
2022-03-30T23:40:02Z,03/30/22 19:40,7869106,3.593,0.01,408,12.6,63.7,91,19.0
2022-03-30T23:41:02Z,03/30/22 19:41,7869116,4.265,0.037,406,12.6,64.0,91,20.0
2022-03-30T23:42:02Z,03/30/22 19:42,7869126,3.976,0.02,398,12.6,64.3,91,20.0
2022-03-30T23:43:02Z,03/30/22 19:43,7869136,4.1049999999999995,0.02,400,12.6,64.4,91,19.0
2022-03-30T23:44:02Z,03/30/22 19:44,7869146,4.0200000000000005,0.012,404,12.6,64.6,91,20.0
2022-03-30T23:45:02Z,03/30/22 19:45,7869156,3.626,0.022,407,12.6,64.9,91,19.0
2022-03-30T23:46:02Z,03/30/22 19:46,7869166,4.0729999999999995,0.016,400,12.5,65.0,91,19.0
2022-03-30T23:47:02Z,03/30/22 19:47,7869176,4.1850000000000005,0.018,407,12.5,65.2,91,20.0
2022-03-30T23:48:02Z,03/30/22 19:48,7869186,4.032,0.018,410,12.5,65.2,91,19.0
2022-03-30T23:49:02Z,03/30/22 19:49,7869196,4.121,0.04,397,12.5,65.4,91,20.0
2022-03-30T23:50:02Z,03/30/22 19:50,7869206,3.8880000000000003,0.012,406,12.5,65.6,91,20.0
2022-03-30T23:51:02Z,03/30/22 19:51,7869216,4.003,0.014000000000000002,403,12.5,65.7,91,22.0
2022-03-30T23:52:02Z,03/30/22 19:52,7869226,3.935,0.034,407,12.5,65.9,91,23.0
2022-03-30T23:53:02Z,03/30/22 19:53,7869236,4.2829999999999995,0.034,409,12.5,66.0,91,22.0
2022-03-30T23:54:02Z,03/30/22 19:54,7869246,4.275,0.018,410,12.5,66.2,91,20.0
2022-03-30T23:55:02Z,03/30/22 19:55,7869256,4.343,0.022,409,12.5,66.3,91,23.0
2022-03-30T23:56:02Z,03/30/22 19:56,7869266,4.025,0.022,422,12.5,66.5,91,22.0
2022-03-30T23:57:02Z,03/30/22 19:57,7869276,3.599,0.016,419,12.5,66.5,91,22.0
2022-03-30T23:58:02Z,03/30/22 19:58,7869286,3.9979999999999998,0.022,419,12.4,66.5,91,19.0
2022-03-30T23:59:02Z,03/30/22 19:59,7869296,4.114,0.014000000000000002,412,12.4,66.8,91,17.0
2022-03-31T00:00:02Z,03/30/22 20:00,7869306,3.821,0.004,410,12.4,66.8,91,20.0
2022-03-31T00:01:02Z,03/30/22 20:01,7869317,4.005,0.024,415,12.4,66.9,91,23.0
2022-03-31T00:02:02Z,03/30/22 20:02,7869328,4.075,0.014000000000000002,415,12.4,67.1,91,21.0
2022-03-31T00:03:02Z,03/30/22 20:03,7869339,4.074,0.006,409,12.4,67.4,91,25.0
2022-03-31T00:04:02Z,03/30/22 20:04,7869350,3.845,0.037,415,12.4,67.4,91,23.0
2022-03-31T00:05:02Z,03/30/22 20:05,7869361,4.385,0.016,422,12.4,67.4,91,20.0
2022-03-31T00:06:02Z,03/30/22 20:06,7869372,4.0,0.014000000000000002,403,12.5,67.7,91,24.0
2022-03-31T00:07:02Z,03/30/22 20:07,7869383,4.042,0.026000000000000002,416,12.5,67.8,91,23.0
2022-03-31T00:08:02Z,03/30/22 20:08,7869394,4.18,0.032,418,12.5,68.0,91,25.0
2022-03-31T00:09:02Z,03/30/22 20:09,7869405,3.905,0.016,415,12.5,68.0,91,21.0
2022-03-31T00:10:02Z,03/30/22 20:10,7869416,4.008,0.024,421,12.5,68.2,91,24.0
2022-03-31T00:11:02Z,03/30/22 20:11,7869427,3.9810000000000003,0.012,421,12.5,68.4,91,23.0
2022-03-31T00:12:02Z,03/30/22 20:12,7869438,3.9159999999999995,0.008,413,12.5,68.5,91,23.0
2022-03-31T00:13:02Z,03/30/22 20:13,7869449,4.5729999999999995,0.032,424,12.6,68.7,91,26.0
2022-03-31T00:14:02Z,03/30/22 20:14,7869460,4.246,0.02,422,12.6,68.8,91,23.0
2022-03-31T00:15:02Z,03/30/22 20:15,7869471,3.893,0.028000000000000004,424,12.6,68.8,91,22.0
2022-03-31T00:16:02Z,03/30/22 20:16,7869482,4.464,0.024,427,12.6,68.8,91,25.0
2022-03-31T00:17:02Z,03/30/22 20:17,7869493,3.925,0.044,423,12.6,69.1,91,23.0
2022-03-31T00:18:02Z,03/30/22 20:18,7869504,3.97,0.008,421,12.6,69.0,91,23.0
2022-03-31T00:19:02Z,03/30/22 20:19,7869515,4.154,0.016,421,12.6,69.2,91,23.0
2022-03-31T00:20:02Z,03/30/22 20:20,7869526,4.068,0.018,411,12.6,69.3,91,23.0
2022-03-31T00:21:02Z,03/30/22 20:21,7869537,4.078,0.032,426,12.6,69.4,91,23.0
2022-03-31T00:22:02Z,03/30/22 20:22,7869548,4.095000000000001,0.027000000000000003,420,12.7,69.5,91,25.0
2022-03-31T00:23:02Z,03/30/22 20:23,7869559,4.0600000000000005,0.026000000000000002,423,12.7,69.6,91,23.0
2022-03-31T00:24:02Z,03/30/22 20:24,7869570,4.233,0.018,434,12.7,69.7,91,24.0
2022-03-31T00:25:02Z,03/30/22 20:25,7869581,4.335,0.018,429,12.7,69.9,91,26.0
2022-03-31T00:26:02Z,03/30/22 20:26,7869592,3.903,0.018,426,12.7,69.8,91,23.0
2022-03-31T00:27:02Z,03/30/22 20:27,7869603,4.233,0.018,424,12.7,69.7,91,22.0
2022-03-31T00:28:02Z,03/30/22 20:28,7869614,4.38,0.03,426,12.7,69.9,91,25.0
2022-03-31T00:29:02Z,03/30/22 20:29,7869625,3.938,0.043,429,12.7,70.0,91,25.0
2022-03-31T00:30:02Z,03/30/22 20:30,7869636,4.317,0.03,430,12.7,70.2,91,25.0
2022-03-31T00:31:02Z,03/30/22 20:31,7869647,4.2909999999999995,0.034999999999999996,430,12.7,70.3,91,25.0
2022-03-31T00:32:02Z,03/30/22 20:32,7869658,4.031000000000001,0.01,426,12.7,70.4,91,25.0
2022-03-31T00:33:02Z,03/30/22 20:33,7869669,4.34,0.031,423,12.7,70.4,91,23.0
2022-03-31T00:34:02Z,03/30/22 20:34,7869680,4.281000000000001,0.012,438,12.7,70.5,91,24.0
2022-03-31T00:35:02Z,03/30/22 20:35,7869691,4.090999999999999,0.043,432,12.7,70.5,91,24.0
2022-03-31T00:36:02Z,03/30/22 20:36,7869702,4.075,0.032,440,12.7,70.6,91,25.0
2022-03-31T00:37:02Z,03/30/22 20:37,7869713,4.3149999999999995,0.014000000000000002,421,12.7,70.7,91,25.0
2022-03-31T00:38:02Z,03/30/22 20:38,7869724,4.282,0.02,426,12.7,70.6,91,25.0
2022-03-31T00:39:02Z,03/30/22 20:39,7869735,4.256,0.01,429,12.7,70.8,91,24.0
2022-03-31T00:40:02Z,03/30/22 20:40,7869746,4.118,0.016,430,12.8,70.9,91,25.0
2022-03-31T00:41:02Z,03/30/22 20:41,7869757,4.064,0.019,437,12.8,71.0,91,24.0
2022-03-31T00:42:02Z,03/30/22 20:42,7869768,4.5409999999999995,0.037,430,12.8,71.0,91,24.0
2022-03-31T00:43:02Z,03/30/22 20:43,7869779,3.9490000000000003,0.026000000000000002,436,12.8,71.1,91,23.0
2022-03-31T00:44:02Z,03/30/22 20:44,7869790,3.935,0.034,433,12.8,71.1,91,23.0
2022-03-31T00:45:02Z,03/30/22 20:45,7869801,4.054,0.008,437,12.8,71.1,91,22.0
2022-03-31T00:46:02Z,03/30/22 20:46,7869812,4.1450000000000005,0.01,439,12.8,71.2,91,22.0
2022-03-31T00:47:02Z,03/30/22 20:47,7869823,4.29,0.012,440,12.8,71.3,91,24.0
2022-03-31T00:48:02Z,03/30/22 20:48,7869834,4.2490000000000006,0.047,434,12.9,71.3,91,22.0
2022-03-31T00:49:02Z,03/30/22 20:49,7869845,3.942,0.018,437,12.9,71.4,91,25.0
2022-03-31T00:50:02Z,03/30/22 20:50,7869856,4.29,0.024,433,12.9,71.5,91,25.0
2022-03-31T00:51:02Z,03/30/22 20:51,7869867,4.111,0.014000000000000002,433,12.9,71.6,91,25.0
2022-03-31T00:52:02Z,03/30/22 20:52,7869878,3.893,0.016,439,12.9,71.5,91,22.0
2022-03-31T00:53:02Z,03/30/22 20:53,7869889,4.064,0.034,442,12.9,71.3,91,20.0
2022-03-31T00:54:02Z,03/30/22 20:54,7869900,4.622,0.022,440,12.9,71.5,91,25.0
2022-03-31T00:55:02Z,03/30/22 20:55,7869911,4.351,0.026000000000000002,440,12.9,71.6,91,24.0
2022-03-31T00:56:02Z,03/30/22 20:56,7869922,4.59,0.024,445,12.9,71.7,91,24.0
2022-03-31T00:57:02Z,03/30/22 20:57,7869933,4.202,0.028000000000000004,440,12.9,71.8,91,24.0
2022-03-31T00:58:02Z,03/30/22 20:58,7869944,4.521,0.006,440,12.9,71.8,91,24.0
2022-03-31T00:59:02Z,03/30/22 20:59,7869955,4.309,0.028999999999999998,433,12.9,71.9,91,24.0
2022-03-31T01:00:02Z,03/30/22 21:00,7869966,4.337,0.028000000000000004,434,12.9,72.0,91,21.0
2022-03-31T01:01:02Z,03/30/22 21:01,7869977,4.445,0.022,440,13.0,72.1,91,25.0
2022-03-31T01:02:02Z,03/30/22 21:02,7869988,4.3759999999999994,0.01,440,13.0,72.1,91,24.0
2022-03-31T01:03:02Z,03/30/22 21:03,7869999,4.545,0.012,440,13.0,72.2,91,24.0
2022-03-31T01:04:02Z,03/30/22 21:04,7870010,4.531000000000001,0.014000000000000002,438,13.0,72.3,91,25.0
2022-03-31T01:05:02Z,03/30/22 21:05,7870021,4.093,0.02,434,13.0,72.4,91,26.0
2022-03-31T01:06:02Z,03/30/22 21:06,7870032,4.273,0.026000000000000002,440,13.0,72.4,91,25.0
2022-03-31T01:07:02Z,03/30/22 21:07,7870043,3.9829999999999997,0.022,444,13.0,72.5,91,25.0
2022-03-31T01:08:02Z,03/30/22 21:08,7870054,4.5840000000000005,0.033,439,13.0,72.6,91,24.0
2022-03-31T01:09:02Z,03/30/22 21:09,7870065,3.9270000000000005,0.03,439,13.1,72.8,91,27.0
2022-03-31T01:10:02Z,03/30/22 21:10,7870076,4.225,0.032,439,13.1,72.8,91,24.0
2022-03-31T01:11:02Z,03/30/22 21:11,7870087,3.883,0.026000000000000002,439,13.1,72.8,91,26.0
2022-03-31T01:12:02Z,03/30/22 21:12,7870098,3.753,0.012,441,13.1,72.9,91,26.0
2022-03-31T01:13:02Z,03/30/22 21:13,7870109,4.0920000000000005,0.018,442,13.1,72.9,91,26.0
2022-03-31T01:14:02Z,03/30/22 21:14,7870120,3.596,0.016,441,13.2,72.9,91,25.0
2022-03-31T01:15:02Z,03/30/22 21:15,7870131,3.9229999999999996,0.004,439,13.2,72.9,91,26.0
2022-03-31T01:16:02Z,03/30/22 21:16,7870142,3.849,0.024,433,13.2,72.9,91,24.0
2022-03-31T01:17:02Z,03/30/22 21:17,7870153,3.71,0.016,454,13.2,73.0,91,26.0
2022-03-31T01:18:02Z,03/30/22 21:18,7870164,3.9520000000000004,0.02,439,13.2,73.1,91,27.0
2022-03-31T01:19:02Z,03/30/22 21:19,7870175,3.775,0.008,445,13.3,73.2,91,27.0
2022-03-31T01:20:02Z,03/30/22 21:20,7870186,3.911,0.04,443,13.3,73.2,91,27.0
2022-03-31T01:21:02Z,03/30/22 21:21,7870197,3.72,0.018,443,13.3,73.3,91,25.0
2022-03-31T01:22:02Z,03/30/22 21:22,7870208,4.059,0.006,444,13.3,73.3,91,27.0
2022-03-31T01:23:02Z,03/30/22 21:23,7870219,3.7439999999999998,0.024,450,13.3,73.5,91,27.0
2022-03-31T01:24:02Z,03/30/22 21:24,7870230,3.442,0.02,450,13.4,73.5,91,26.0
2022-03-31T01:25:02Z,03/30/22 21:25,7870241,3.406,0.008,438,13.4,73.5,91,25.0
2022-03-31T01:26:02Z,03/30/22 21:26,7870252,3.844,0.008,441,13.4,73.5,91,28.0
2022-03-31T01:27:02Z,03/30/22 21:27,7870263,3.2909999999999995,0.018,443,13.4,73.6,91,28.0
2022-03-31T01:28:02Z,03/30/22 21:28,7870274,3.5469999999999997,0.008,441,13.5,73.7,91,27.0
2022-03-31T01:29:02Z,03/30/22 21:29,7870285,3.339,0.024,447,13.5,73.7,91,27.0
2022-03-31T01:30:02Z,03/30/22 21:30,7870296,3.35,0.01,451,13.5,73.8,91,27.0
2022-03-31T01:31:02Z,03/30/22 21:31,7870307,3.4229999999999996,0.012,457,13.5,73.8,91,29.0
2022-03-31T01:32:02Z,03/30/22 21:32,7870318,3.2060000000000004,0.01,447,13.5,73.9,91,30.0
2022-03-31T01:33:02Z,03/30/22 21:33,7870329,3.3899999999999997,0.018,449,13.5,74.0,91,28.0
2022-03-31T01:34:02Z,03/30/22 21:34,7870340,3.339,0.018,443,13.5,73.9,91,28.0
2022-03-31T01:35:02Z,03/30/22 21:35,7870351,3.261,0.018,454,13.5,73.9,91,29.0
2022-03-31T01:36:02Z,03/30/22 21:36,7870362,3.2090000000000005,0.01,448,13.6,74.0,91,28.0
2022-03-31T01:37:02Z,03/30/22 21:37,7870373,3.278,0.016,449,13.6,74.1,91,30.0
2022-03-31T01:38:02Z,03/30/22 21:38,7870384,3.3049999999999997,0.034,439,13.6,74.1,91,28.0
2022-03-31T01:39:02Z,03/30/22 21:39,7870395,3.166,0.02,444,13.6,74.0,91,26.0
2022-03-31T01:40:02Z,03/30/22 21:40,7870406,3.161,0.022,446,13.7,74.1,91,29.0
2022-03-31T01:41:02Z,03/30/22 21:41,7870417,3.056,0.004,458,13.7,74.2,91,29.0
2022-03-31T01:42:02Z,03/30/22 21:42,7870428,3.163,0.026000000000000002,452,13.7,74.2,91,29.0
2022-03-31T01:43:02Z,03/30/22 21:43,7870439,3.073,0.008,441,13.7,74.2,91,29.0
2022-03-31T01:44:02Z,03/30/22 21:44,7870450,3.189,0.018,444,13.7,74.2,91,27.0
2022-03-31T01:45:02Z,03/30/22 21:45,7870461,2.744,0.004,448,13.7,74.2,91,29.0
2022-03-31T01:46:02Z,03/30/22 21:46,7870472,2.8920000000000003,0.024,444,13.8,74.1,91,30.0
2022-03-31T01:47:02Z,03/30/22 21:47,7870483,2.7809999999999997,0.03,451,13.8,74.2,91,30.0
2022-03-31T01:48:02Z,03/30/22 21:48,7870494,2.965,0.026000000000000002,448,13.8,74.3,91,30.0
2022-03-31T01:49:02Z,03/30/22 21:49,7870505,3.045,0.024,448,13.8,74.4,91,30.0
2022-03-31T01:50:02Z,03/30/22 21:50,7870516,2.629,0.008,437,13.9,74.4,91,30.0
2022-03-31T01:51:02Z,03/30/22 21:51,7870527,2.857,0.002,446,13.9,74.4,91,28.0
2022-03-31T01:52:02Z,03/30/22 21:52,7870538,3.125,0.022,458,13.9,74.4,91,30.0
2022-03-31T01:53:02Z,03/30/22 21:53,7870549,2.826,0.036,457,13.9,74.3,91,27.0
2022-03-31T01:54:02Z,03/30/22 21:54,7870560,2.819,0.01,446,13.9,74.3,91,28.0
2022-03-31T01:55:02Z,03/30/22 21:55,7870571,2.525,0.01,452,13.9,74.3,91,29.0
2022-03-31T01:56:02Z,03/30/22 21:56,7870582,2.487,0.006,446,13.9,74.4,91,31.0
2022-03-31T01:57:02Z,03/30/22 21:57,7870593,2.592,0.024,446,13.9,74.4,91,29.0
2022-03-31T01:58:02Z,03/30/22 21:58,7870604,2.342,0.01,450,14.0,74.4,91,30.0
2022-03-31T01:59:02Z,03/30/22 21:59,7870615,3.035,0.004,440,14.0,74.5,91,31.0
2022-03-31T02:00:02Z,03/30/22 22:00,7870626,2.627,0.01,452,14.0,74.5,91,28.0
2022-03-31T02:01:02Z,03/30/22 22:01,7870637,2.592,0.006,454,14.0,74.4,91,28.0
2022-03-31T02:02:02Z,03/30/22 22:02,7870648,2.538,0.012,452,14.0,74.5,91,30.0
2022-03-31T02:03:02Z,03/30/22 22:03,7870659,2.379,0.012,454,14.0,74.6,91,30.0
2022-03-31T02:04:02Z,03/30/22 22:04,7870670,2.779,0.002,457,14.0,74.7,91,30.0
2022-03-31T02:05:02Z,03/30/22 22:05,7870681,2.428,0.026000000000000002,450,14.0,74.6,91,26.0
2022-03-31T02:06:02Z,03/30/22 22:06,7870692,2.722,0.002,449,14.0,74.7,91,27.0
2022-03-31T12:58:04Z,03/31/22 08:58,7872652,0.5700000000000001,0.018,1754,14.9,76.5,91,0.0
2022-03-31T12:59:04Z,03/31/22 08:59,7872657,0.49800000000000005,0.024,1712,15.3,74.4,91,0.0
2022-03-31T13:00:04Z,03/31/22 09:00,7872664,1.627,0.02,1631,15.7,73.0,91,0.0
2022-03-31T13:01:04Z,03/31/22 09:01,7872671,0.312,0.0,1729,16.1,72.0,91,0.0
2022-03-31T13:02:04Z,03/31/22 09:02,7872679,0.44400000000000006,0.0,2007,16.6,71.6,91,0.0
2022-03-31T13:03:04Z,03/31/22 09:03,7872687,0.233,0.004,2009,17.0,70.1,91,0.0
2022-03-31T13:04:04Z,03/31/22 09:04,7872695,0.10400000000000001,0.016,1944,17.4,69.1,91,0.0
2022-03-31T13:05:04Z,03/31/22 09:05,7872703,2.447,0.01,2606,17.9,70.5,91,0.0
2022-03-31T13:06:04Z,03/31/22 09:06,7872711,0.4,0.008,2898,18.4,70.1,91,0.0
2022-03-31T13:07:04Z,03/31/22 09:07,7872719,0.7889999999999999,0.006,3585,18.9,70.0,91,0.0
2022-03-31T13:08:04Z,03/31/22 09:08,7872727,1.611,0.006,2694,19.3,65.9,91,0.0
2022-03-31T13:09:04Z,03/31/22 09:09,7872735,0.183,0.0,1899,19.6,64.0,91,0.0
2022-03-31T13:10:04Z,03/31/22 09:10,7872743,0.118,0.002,1703,19.9,63.3,91,0.0
2022-03-31T13:11:04Z,03/31/22 09:11,7872751,0.154,0.014000000000000002,1609,20.1,61.5,91,0.0
2022-03-31T13:12:04Z,03/31/22 09:12,7872759,1.377,0.0,2085,20.4,61.2,91,0.0
2022-03-31T13:13:04Z,03/31/22 09:13,7872767,0.522,0.012,2812,20.6,61.4,91,0.0
2022-03-31T13:14:04Z,03/31/22 09:14,7872775,0.8240000000000001,0.016,2285,20.8,58.7,91,0.0
2022-03-31T13:15:04Z,03/31/22 09:15,7872783,6.507,0.012,1588,20.9,56.6,91,0.0
2022-03-31T13:16:04Z,03/31/22 09:16,7872791,0.355,0.002,1391,21.0,55.6,91,0.0
2022-03-31T13:17:04Z,03/31/22 09:17,7872799,0.056999999999999995,0.0,1153,21.1,54.4,91,0.0
2022-03-31T13:18:04Z,03/31/22 09:18,7872807,0.10800000000000001,0.0,1042,21.1,53.3,91,0.0
2022-03-31T13:19:04Z,03/31/22 09:19,7872815,0.417,0.0,950,21.1,52.3,91,0.0
2022-03-31T13:20:04Z,03/31/22 09:20,7872823,0.067,0.002,929,21.1,51.6,91,0.0
2022-03-31T13:21:04Z,03/31/22 09:21,7872831,0.03,0.0,923,21.2,50.9,91,0.0
2022-03-31T13:22:04Z,03/31/22 09:22,7872839,0.089,0.004,914,21.3,50.5,91,0.0
2022-03-31T13:23:04Z,03/31/22 09:23,7872847,0.012,0.0,973,21.3,49.9,91,0.0
2022-03-31T13:24:04Z,03/31/22 09:24,7872855,0.051000000000000004,0.006,973,21.4,49.8,91,0.0
2022-03-31T13:25:04Z,03/31/22 09:25,7872863,0.06899999999999999,0.0,950,21.5,49.3,91,0.0
2022-03-31T13:26:04Z,03/31/22 09:26,7872871,0.041999999999999996,0.012,989,21.6,48.9,91,0.0
2022-03-31T13:27:04Z,03/31/22 09:27,7872879,0.036,0.006,1043,21.7,48.4,91,0.0
2022-03-31T13:28:04Z,03/31/22 09:28,7872887,0.29,0.004,967,21.8,47.5,91,0.0
2022-03-31T13:29:04Z,03/31/22 09:29,7872895,0.046,0.002,918,21.8,47.0,91,0.0
2022-03-31T13:30:04Z,03/31/22 09:30,7872903,0.024,0.0,893,21.9,46.6,91,0.0
2022-03-31T13:31:04Z,03/31/22 09:31,7872911,0.045,0.0,917,22.0,46.0,91,0.0
2022-03-31T13:32:04Z,03/31/22 09:32,7872919,0.04,0.002,906,22.0,45.5,91,0.0
2022-03-31T13:33:04Z,03/31/22 09:33,7872927,0.024,0.0,921,22.1,45.1,91,0.0
2022-03-31T13:34:04Z,03/31/22 09:34,7872935,0.061,0.002,892,22.1,44.7,91,0.0
2022-03-31T13:35:04Z,03/31/22 09:35,7872943,0.034,0.002,860,22.1,44.2,91,0.0
2022-03-31T13:36:04Z,03/31/22 09:36,7872951,0.061,0.002,841,22.1,43.8,91,0.0
2022-03-31T13:37:04Z,03/31/22 09:37,7872959,0.064,0.002,862,22.1,43.6,91,0.0
2022-03-31T13:38:04Z,03/31/22 09:38,7872967,0.039,0.0,865,22.1,43.3,91,0.0
2022-03-31T13:39:04Z,03/31/22 09:39,7872975,0.06899999999999999,0.0,867,22.1,43.1,91,0.0
2022-03-31T13:40:04Z,03/31/22 09:40,7872983,0.03,0.0,873,22.1,42.8,91,0.0
2022-03-31T13:41:04Z,03/31/22 09:41,7872991,0.061,0.002,875,22.1,42.6,91,0.0
2022-03-31T13:42:04Z,03/31/22 09:42,7872999,0.041999999999999996,0.0,902,22.1,42.6,91,0.0
2022-03-31T13:43:04Z,03/31/22 09:43,7873007,0.018,0.0,936,22.1,42.4,91,0.0
2022-03-31T13:44:04Z,03/31/22 09:44,7873015,0.059,0.004,978,22.2,42.3,91,0.0
2022-03-31T13:45:04Z,03/31/22 09:45,7873023,0.06899999999999999,0.0,1047,22.2,42.3,91,0.0
2022-03-31T13:46:04Z,03/31/22 09:46,7873031,0.024,0.0,1082,22.3,42.2,91,0.0
2022-03-31T13:47:04Z,03/31/22 09:47,7873039,0.04,0.002,1050,22.3,41.9,91,0.0
2022-03-31T13:48:04Z,03/31/22 09:48,7873047,0.075,0.006,1027,22.4,41.7,91,0.0
2022-03-31T13:49:04Z,03/31/22 09:49,7873055,0.012,0.0,1025,22.4,41.6,91,0.0
2022-03-31T13:50:04Z,03/31/22 09:50,7873063,0.054000000000000006,0.0,1021,22.4,41.4,91,0.0
2022-03-31T13:51:04Z,03/31/22 09:51,7873071,0.024,0.0,1051,22.4,41.3,91,0.0
2022-03-31T13:52:04Z,03/31/22 09:52,7873079,1.404,0.0,1125,22.5,41.8,91,0.0
2022-03-31T13:53:04Z,03/31/22 09:53,7873087,0.34500000000000003,0.0,1352,22.6,42.4,91,0.0
2022-03-31T13:54:04Z,03/31/22 09:54,7873095,0.7889999999999999,0.0,1389,22.8,42.5,91,0.0
2022-03-31T13:55:04Z,03/31/22 09:55,7873103,0.302,0.022,1437,23.0,43.2,91,0.0
2022-03-31T13:56:04Z,03/31/22 09:56,7873111,0.065,0.004,1380,23.2,42.2,91,0.0
2022-03-31T13:57:04Z,03/31/22 09:57,7873119,0.036,0.0,1255,23.2,41.8,91,0.0
2022-03-31T13:58:04Z,03/31/22 09:58,7873127,3.681,0.018,1271,23.4,41.8,91,0.0
2022-03-31T13:59:04Z,03/31/22 09:59,7873135,0.041999999999999996,0.0,1305,23.5,41.4,91,0.0
2022-03-31T14:00:04Z,03/31/22 10:00,7873142,0.13899999999999998,0.002,1266,23.5,41.0,91,0.0
2022-03-31T14:01:04Z,03/31/22 10:01,7873150,0.048,0.0,1306,23.5,40.9,91,0.0
2022-03-31T14:02:04Z,03/31/22 10:02,7873158,0.036,0.0,1415,23.6,40.8,91,0.0
2022-03-31T14:03:04Z,03/31/22 10:03,7873166,2.011,0.008,1422,23.6,40.7,91,0.0
2022-03-31T14:04:04Z,03/31/22 10:04,7873174,0.2,0.004,2077,23.6,42.2,91,0.0
2022-03-31T14:05:04Z,03/31/22 10:05,7873182,1.984,0.02,2012,23.7,41.5,91,0.0
2022-03-31T14:06:04Z,03/31/22 10:06,7873190,0.316,0.002,1798,23.8,40.9,91,0.0
2022-03-31T14:07:04Z,03/31/22 10:07,7873198,0.47300000000000003,0.004,1612,23.8,40.6,91,0.0
2022-03-31T14:08:04Z,03/31/22 10:08,7873206,0.044,0.004,1422,23.8,40.3,91,0.0
2022-03-31T14:09:04Z,03/31/22 10:09,7873214,0.061,0.002,1352,23.8,39.9,91,0.0
2022-03-31T14:10:04Z,03/31/22 10:10,7873222,0.036,0.0,1317,23.8,39.7,91,0.0
2022-03-31T14:11:04Z,03/31/22 10:11,7873230,0.045,0.0,1270,23.8,39.5,91,0.0
2022-03-31T14:12:04Z,03/31/22 10:12,7873238,0.28300000000000003,0.002,1266,23.7,39.3,91,0.0
2022-03-31T14:13:04Z,03/31/22 10:13,7873246,0.041999999999999996,0.0,1251,23.7,39.2,91,0.0
2022-03-31T14:14:04Z,03/31/22 10:14,7873254,0.254,0.004,1266,23.6,39.2,91,0.0
2022-03-31T14:15:04Z,03/31/22 10:15,7873262,1.566,0.0,1276,23.6,39.0,91,0.0
2022-03-31T14:16:04Z,03/31/22 10:16,7873270,0.022,0.002,1261,23.6,39.0,91,0.0
2022-03-31T14:17:04Z,03/31/22 10:17,7873278,0.151,0.002,1265,23.5,38.9,91,0.0
2022-03-31T14:18:04Z,03/31/22 10:18,7873286,0.024,0.0,1269,23.5,38.8,91,0.0
2022-03-31T14:19:04Z,03/31/22 10:19,7873294,0.022,0.002,1236,23.4,38.7,91,0.0
2022-03-31T14:20:04Z,03/31/22 10:20,7873302,0.012,0.0,1253,23.4,38.7,91,0.0
2022-03-31T14:21:04Z,03/31/22 10:21,7873310,0.041999999999999996,0.0,1253,23.3,38.7,91,0.0
2022-03-31T14:22:04Z,03/31/22 10:22,7873318,0.03,0.0,1243,23.3,38.6,91,0.0
2022-03-31T14:23:04Z,03/31/22 10:23,7873326,0.012,0.0,1239,23.2,38.5,91,0.0
2022-03-31T14:24:04Z,03/31/22 10:24,7873333,0.018,0.0,1248,23.2,38.5,91,0.0
2022-03-31T14:25:04Z,03/31/22 10:25,7873341,0.028000000000000004,0.002,1273,23.2,38.5,91,0.0
2022-03-31T14:26:04Z,03/31/22 10:26,7873349,0.03,0.0,1262,23.2,38.4,91,0.0
2022-03-31T14:27:04Z,03/31/22 10:27,7873357,0.046,0.002,1243,23.2,38.4,91,0.0
2022-03-31T14:28:04Z,03/31/22 10:28,7873365,0.06999999999999999,0.002,1251,23.1,38.4,91,0.0
2022-03-31T14:29:04Z,03/31/22 10:29,7873373,0.036,0.0,1275,23.1,38.4,91,0.0
2022-03-31T14:30:04Z,03/31/22 10:30,7873381,0.043,0.002,1302,23.1,38.4,91,0.0
2022-03-31T14:31:04Z,03/31/22 10:31,7873389,0.036,0.0,1284,23.1,38.4,91,0.0
2022-03-31T14:32:04Z,03/31/22 10:32,7873397,0.024,0.0,1288,23.1,38.4,91,0.0
2022-03-31T14:33:04Z,03/31/22 10:33,7873405,0.072,0.006,1278,23.0,38.3,91,0.0
2022-03-31T14:34:04Z,03/31/22 10:34,7873413,0.038,0.004,1274,23.0,38.3,91,0.0
2022-03-31T14:35:04Z,03/31/22 10:35,7873421,0.022,0.002,1264,23.0,38.2,91,0.0
2022-03-31T14:36:04Z,03/31/22 10:36,7873429,0.078,0.0,1257,23.0,38.1,91,0.0
2022-03-31T14:37:04Z,03/31/22 10:37,7873436,0.057999999999999996,0.002,1627,23.0,38.6,91,0.0
2022-03-31T14:38:04Z,03/31/22 10:38,7873444,0.028000000000000004,0.002,1668,23.0,38.6,91,0.0
2022-03-31T14:39:04Z,03/31/22 10:39,7873451,0.036,0.0,1636,23.1,38.8,91,0.0
2022-03-31T14:40:04Z,03/31/22 10:40,7873459,0.048,0.0,1522,23.1,38.4,91,0.0
2022-03-31T14:41:04Z,03/31/22 10:41,7873467,0.03,0.0,1804,23.1,38.9,91,0.0
2022-03-31T14:42:04Z,03/31/22 10:42,7873475,0.04,0.002,1542,23.2,38.4,91,0.0
2022-03-31T14:43:04Z,03/31/22 10:43,7873483,0.028000000000000004,0.002,1393,23.2,38.2,91,0.0
2022-03-31T14:44:04Z,03/31/22 10:44,7873491,0.022,0.002,1406,23.2,38.3,91,0.0
2022-03-31T14:45:04Z,03/31/22 10:45,7873499,0.036,0.0,1374,23.2,38.1,91,0.0
2022-03-31T14:49:18Z,03/31/22 10:49,7873522,0.075,0.0,781,22.5,36.7,91,0.0
2022-03-31T14:50:18Z,03/31/22 10:50,7873531,0.066,0.0,612,21.7,36.6,91,4.0
2022-03-31T14:52:13Z,03/31/22 10:52,7873548,0.03,0.0,347,19.9,37.1,91,18.0
2022-03-31T14:53:13Z,03/31/22 10:53,7873559,0.129,0.0,324,19.1,37.6,91,20.0
2022-03-31T14:54:13Z,03/31/22 10:54,7873570,0.041999999999999996,0.0,297,18.2,38.1,91,21.0
2022-03-31T14:55:13Z,03/31/22 10:55,7873581,0.054000000000000006,0.0,293,17.3,38.7,91,24.0
2022-03-31T14:56:13Z,03/31/22 10:56,7873592,0.048,0.0,288,16.5,39.4,91,25.0
2022-03-31T14:57:13Z,03/31/22 10:57,7873603,0.054000000000000006,0.0,277,15.7,39.8,91,28.0
2022-03-31T14:58:13Z,03/31/22 10:58,7873614,0.056999999999999995,0.0,271,15.0,40.7,91,26.0
2022-03-31T14:59:13Z,03/31/22 10:59,7873625,0.036,0.0,263,14.5,41.6,91,26.0